Total_Precipitation_Accumulation
0.00 0.00 0.02 0.01 0.00 0.01 0.03 0.02 0.02 0.03 0.05 0.07 0.06 0.06 0.08 0.10 0.07 0.03 0.01 0.01 0.01 0.02 0.05 0.04 0.05 0.05 0.04 0.04 0.04 0.02 0.01 0.00 0.00 0.00 0.00 0.00 0.00 0.00 0.00 0.00 0.00 0.00 0.00
0.00 0.00 0.02 0.01 0.00 0.01 0.03 0.04 0.04 0.04 0.03 0.03 0.05 0.09 0.13 0.11 0.10 0.04 0.01 0.01 0.01 0.01 0.02 0.03 0.03 0.04 0.04 0.04 0.03 0.02 0.00 0.00 0.00 0.00 0.00 0.00 0.00 0.00 0.00 0.00 0.00 0.00 0.00
0.00 0.00 0.01 0.01 0.00 0.00 0.01 0.03 0.06 0.06 0.04 0.02 0.05 0.09 0.11 0.11 0.10 0.08 0.07 0.02 0.01 0.00 0.00 0.01 0.01 0.03 0.02 0.02 0.02 0.01 0.00 0.00 0.00 0.00 0.00 0.00 0.00 0.00 0.00 0.00 0.00 0.00 0.00
0.00 0.00 0.00 0.01 0.01 0.00 0.01 0.02 0.06 0.07 0.03 0.04 0.11 0.12 0.08 0.10 0.10 0.09 0.08 0.04 0.03 0.00 0.00 0.01 0.01 0.03 0.02 0.01 0.00 0.00 0.00 0.00 0.00 0.01 0.01 0.04 0.04 0.01 0.00 0.01 0.01 0.00 0.00
0.00 0.00 0.00 0.01 0.01 0.00 0.01 0.02 0.04 0.05 0.04 0.04 0.09 0.09 0.06 0.09 0.11 0.09 0.08 0.07 0.08 0.03 0.01 0.02 0.02 0.03 0.02 0.01 0.01 0.01 0.00 0.00 0.00 0.00 0.02 0.08 0.10 0.04 0.01 0.03 0.03 0.04 0.02
0.00 0.00 0.00 0.01 0.01 0.00 0.00 0.01 0.03 0.04 0.03 0.02 0.03 0.06 0.06 0.10 0.16 0.13 0.10 0.11 0.13 0.11 0.05 0.02 0.02 0.03 0.02 0.01 0.01 0.01 0.01 0.01 0.00 0.00 0.01 0.05 0.15 0.11 0.05 0.10 0.16 0.15 0.12
0.00 0.00 0.00 0.01 0.01 0.00 0.00 0.01 0.02 0.02 0.02 0.01 0.01 0.02 0.02 0.06 0.10 0.11 0.09 0.10 0.11 0.10 0.08 0.06 0.04 0.03 0.04 0.04 0.03 0.03 0.04 0.05 0.03 0.02 0.02 0.05 0.16 0.11 0.08 0.22 0.33 0.27 0.21
0.00 0.00 0.01 0.01 0.01 0.00 0.00 0.00 0.01 0.01 0.01 0.01 0.00 0.00 0.01 0.03 0.05 0.06 0.07 0.06 0.05 0.04 0.05 0.06 0.07 0.08 0.06 0.05 0.05 0.05 0.05 0.05 0.05 0.05 0.04 0.07 0.10 0.08 0.15 0.29 0.36 0.32 0.26
0.00 0.00 0.00 0.01 0.01 0.00 0.00 0.00 0.00 0.01 0.01 0.00 0.00 0.00 0.01 0.01 0.02 0.03 0.06 0.06 0.05 0.04 0.06 0.07 0.06 0.06 0.06 0.06 0.05 0.04 0.04 0.04 0.05 0.08 0.10 0.18 0.22 0.20 0.30 0.37 0.37 0.34 0.32
0.00 0.00 0.00 0.00 0.01 0.01 0.00 0.00 0.01 0.00 0.00 0.01 0.01 0.01 0.01 0.01 0.01 0.02 0.05 0.05 0.05 0.05 0.05 0.06 0.07 0.07 0.07 0.07 0.08 0.09 0.07 0.04 0.02 0.03 0.13 0.18 0.22 0.32 0.42 0.48 0.51 0.47 0.48
0.00 0.00 0.00 0.00 0.01 0.01 0.00 0.00 0.00 0.00 0.00 0.00 0.01 0.01 0.01 0.01 0.02 0.04 0.02 0.03 0.03 0.05 0.05 0.05 0.06 0.07 0.07 0.07 0.10 0.14 0.12 0.11 0.06 0.04 0.08 0.13 0.15 0.28 0.43 0.52 0.57 0.60 0.63
0.00 0.00 0.00 0.00 0.00 0.00 0.00 0.00 0.00 0.00 0.00 0.00 0.01 0.02 0.02 0.03 0.03 0.03 0.03 0.04 0.08 0.16 0.18 0.18 0.17 0.11 0.09 0.07 0.19 0.25 0.11 0.16 0.17 0.12 0.09 0.09 0.15 0.32 0.46 0.45 0.50 0.57 0.59
0.00 0.00 0.00 0.00 0.00 0.00 0.00 0.00 0.00 0.00 0.00 0.00 0.00 0.01 0.01 0.01 0.01 0.01 0.04 0.09 0.12 0.15 0.22 0.40 0.42 0.29 0.23 0.22 0.24 0.21 0.07 0.06 0.11 0.11 0.16 0.19 0.20 0.34 0.52 0.42 0.35 0.44 0.55
0.00 0.00 0.00 0.00 0.00 0.00 0.00 0.00 0.00 0.00 0.00 0.00 0.00 0.00 0.00 0.00 0.00 0.03 0.11 0.14 0.14 0.10 0.17 0.22 0.39 0.24 0.16 0.15 0.17 0.16 0.15 0.15 0.12 0.19 0.27 0.20 0.18 0.25 0.43 0.40 0.32 0.32 0.44
0.00 0.00 0.00 0.00 0.00 0.00 0.00 0.00 0.00 0.00 0.00 0.00 0.00 0.00 0.00 0.00 0.01 0.05 0.11 0.17 0.11 0.08 0.13 0.14 0.15 0.17 0.23 0.28 0.20 0.16 0.17 0.17 0.22 0.36 0.42 0.28 0.19 0.19 0.26 0.31 0.34 0.31 0.28
0.00 0.00 0.00 0.00 0.00 0.00 0.00 0.00 0.00 0.00 0.00 0.00 0.00 0.00 0.00 0.00 0.02 0.09 0.14 0.18 0.13 0.14 0.20 0.23 0.22 0.35 0.35 0.27 0.17 0.15 0.11 0.09 0.10 0.16 0.23 0.22 0.14 0.13 0.16 0.19 0.25 0.28 0.23
0.00 0.00 0.00 0.00 0.00 0.00 0.00 0.00 0.01 0.01 0.01 0.01 0.01 0.01 0.01 0.02 0.07 0.18 0.20 0.19 0.21 0.22 0.29 0.38 0.34 0.31 0.26 0.18 0.10 0.10 0.08 0.07 0.03 0.03 0.03 0.05 0.07 0.06 0.07 0.10 0.15 0.21 0.19
0.03 0.05 0.04 0.02 0.02 0.02 0.02 0.02 0.05 0.07 0.04 0.03 0.02 0.03 0.04 0.05 0.12 0.27 0.25 0.24 0.34 0.30 0.40 0.49 0.41 0.30 0.23 0.15 0.11 0.09 0.05 0.04 0.02 0.02 0.01 0.02 0.04 0.03 0.04 0.07 0.10 0.12 0.14
0.12 0.15 0.13 0.09 0.05 0.05 0.04 0.08 0.16 0.19 0.15 0.10 0.08 0.08 0.11 0.13 0.18 0.31 0.32 0.36 0.36 0.40 0.43 0.32 0.44 0.34 0.25 0.22 0.13 0.16 0.08 0.05 0.03 0.04 0.03 0.02 0.02 0.02 0.02 0.04 0.06 0.09 0.14
0.33 0.28 0.27 0.27 0.22 0.16 0.19 0.30 0.35 0.32 0.30 0.29 0.28 0.30 0.30 0.29 0.32 0.44 0.42 0.40 0.34 0.48 0.50 0.41 0.46 0.43 0.33 0.27 0.14 0.11 0.08 0.04 0.04 0.07 0.06 0.06 0.04 0.02 0.03 0.04 0.09 0.07 0.06
0.65 0.60 0.56 0.55 0.56 0.61 0.76 0.87 0.90 0.85 0.78 0.65 0.55 0.50 0.47 0.43 0.47 0.58 0.50 0.53 0.46 0.48 0.49 0.41 0.54 0.56 0.45 0.34 0.24 0.15 0.05 0.03 0.05 0.10 0.15 0.16 0.11 0.07 0.05 0.05 0.07 0.06 0.06
0.81 0.88 0.81 0.72 0.68 0.71 0.95 1.28 1.49 1.53 1.34 1.03 0.82 0.72 0.60 0.53 0.54 0.57 0.59 0.50 0.48 0.52 0.55 0.55 0.61 0.51 0.39 0.36 0.35 0.31 0.15 0.11 0.11 0.18 0.30 0.31 0.21 0.11 0.07 0.07 0.07 0.06 0.05
0.68 0.68 0.61 0.56 0.58 0.61 0.74 1.01 1.26 1.51 1.55 1.28 0.99 0.87 0.75 0.63 0.53 0.53 0.56 0.51 0.53 0.55 0.65 0.74 0.63 0.53 0.44 0.43 0.44 0.49 0.37 0.26 0.15 0.08 0.11 0.17 0.21 0.18 0.13 0.11 0.09 0.07 0.05
0.49 0.48 0.49 0.53 0.60 0.69 0.81 0.96 1.22 1.49 1.51 1.38 1.21 1.01 0.82 0.66 0.52 0.49 0.51 0.52 0.55 0.59 0.69 0.66 0.62 0.68 0.64 0.59 0.60 0.59 0.55 0.48 0.39 0.16 0.07 0.12 0.18 0.20 0.18 0.14 0.11 0.08 0.06
0.49 0.55 0.59 0.66 0.75 0.84 0.92 0.97 1.11 1.45 1.45 1.22 1.02 0.86 0.76 0.68 0.61 0.56 0.54 0.53 0.52 0.56 0.63 0.63 0.75 0.73 0.75 0.73 0.67 0.63 0.65 0.62 0.56 0.42 0.21 0.15 0.15 0.14 0.14 0.12 0.11 0.09 0.07
0.51 0.57 0.60 0.63 0.67 0.73 0.77 0.82 0.84 0.99 1.04 0.94 0.86 0.78 0.68 0.62 0.60 0.58 0.53 0.51 0.50 0.55 0.63 0.64 0.63 0.61 0.64 0.67 0.62 0.57 0.62 0.61 0.59 0.61 0.47 0.35 0.28 0.20 0.19 0.16 0.13 0.13 0.12